911  
ASUS44 KOUN 212100  
RWROK  
 
WEATHER ROUNDUP FOR OKLAHOMA  
NATIONAL WEATHER SERVICE NORMAN OK  
300 PM CST TUE NOV 21 2017  
 
NOTE: "FAIR" INDICATES FEW OR NO CLOUDS BELOW 12,000 FEET WITH NO  
SIGNIFICANT WEATHER AND/OR S TO VISIBILITY
.  
 
OKZ001>007-009>012-014-015-017-212200-  
NORTHWEST OKLAHOMA AND THE PANHANDLE  
 
CITY SKY/WX TMP DP RH WIND PRES REMARKS
 
GAGE SUNNY 57 28 33 N29G35 30.20R  
GUYMON SUNNY 54 27 35 N22G29 30.26R  
ENID/WOODRING SUNNY 61 32 33 N26G33 30.01F  

 
 
OKZ016-021>023-033>039-044-045-212200-  
SOUTHWEST OKLAHOMA  
 
CITY SKY/WX TMP DP RH WIND PRES REMARKS
 
LAWTON/REGL MOSUNNY 63 31 30 N30G37 30.06R  
LAWTON/FT SILL MOSUNNY 61 36 39 N35G41 30.03R  
FREDERICK SUNNY 66 28 24 N26G38 30.03R  
CLINTON SUNNY 59 25 27 N26G38 30.13R  
HOBART SUNNY 63 28 26 NE28G36 30.11R  
ALTUS AFB MOSUNNY 64 22 20 NE26G35 30.08R  

 
 
OKZ018>020-024>031-212200-  
CENTRAL OKLAHOMA  
 
CITY SKY/WX TMP DP RH WIND PRES REMARKS
 
OKLAHOMA CITY MOSUNNY 61 29 29 N22G32 30.07R  
OKC/WILEY POST SUNNY 61 30 31 N26G39 30.08R  
OKC/TINKER AFB SUNNY 61 30 30 NE18G28 30.06R  
STILLWATER SUNNY 62 27 26 N22G33 30.10R  
GUTHRIE SUNNY 62 31 31 NE10G25 30.09R  

 
 
OKZ008-013-054>072-212200-  
NORTHEAST OKLAHOMA  
 
CITY SKY/WX TMP DP RH WIND PRES REMARKS
 
TULSA MOSUNNY 61 33 35 N20G28 30.07R  
TULSA/JONES SUNNY 62 33 33 N15G26 30.07R  
PONCA CITY SUNNY 60 30 32 N28G36 30.12R  
BARTLESVILLE LGT RAIN 60 32 34 N18G28 30.12R  
MUSKOGEE MOSUNNY 60 39 45 N16 30.06R  

 
 
OKZ032-040>043-046>053-073>077-212200-  
SOUTH CENTRAL/SOUTHEAST OKLAHOMA  
 
CITY SKY/WX TMP DP RH WIND PRES REMARKS
 
MCALESTER SUNNY 67 45 45 N13 30.00R  

 
 
 
 
CLICK HERE TO GO TO PREVIOUS BULLETINS.

The Nexlab OK Page Main Text Page